Rochester, MN

7:01 AM CDT on June 18, 2018 (GMT -0500)
Rochester International

Weather History for KRST - December, 2017

Change the Weather History Date:

Wednesday, December 6, 2017

  Actual Average Record
Temperature  
Mean Temperature 19 °F 23 °F  
Max Temperature 24 °F 30 °F 48 °F (1911)
Min Temperature 14 °F 15 °F -28 °F (1972)
Degree Days  
Heating Degree Days 46 42  
Month to date heating degree days 190 246  
Since 1 July heating degree days 1768 1918  
Cooling Degree Days 0 0  
Month to date cooling degree days 0 0  
Year to date cooling degree days 494 585  
Moisture  
Dew Point 12 °F    
Average Humidity 78    
Maximum Humidity 88    
Minimum Humidity 68    
Precipitation  
Precipitation T in 0.04 in 0.38 in (1950)
Month to date precipitation 0.06 0.29  
Year to date precipitation 32.24 32.08  
Snow  
Snow 0.20 in 0.40 in 5.70 in (1950)
Month to date snowfall 0.4 2.4  
Since 1 July snowfall 3.7 9.3  
Snow Depth 0.00 in    
Sea Level Pressure  
Sea Level Pressure 30.09 in    
Wind  
Wind Speed 20 mph (WNW)    
Max Wind Speed 29 mph    
Max Gust Speed 34 mph    
Visibility 6 miles    
Events Snow    
T = Trace of Precipitation, MM = Missing Value Source: NWS Daily Summary

Daily Weather History Graph

Daily Weather History Graph

Search for Another Location

Airport or City:

Astronomy

Dec. 06, 2017 Rise Set
Actual Time 7:29 AM CST 4:32 PM CST
Civil Twilight 6:57 AM CST 5:04 PM CST
Nautical Twilight 6:21 AM CST 5:41 PM CST
Astronomical Twilight 5:46 AM CST 6:16 PM CST
Moon 8:13 PM CST (12/6) 10:18 AM CST (12/6)
Length of Visible Light 10h 07m
Length of Day
9h 02m
Waning Gibbous, 86% of the Moon is Illuminated
Dec 6
Waning Gibbous
Dec 10
Last Quarter
Dec 18
New
Dec 26
First Quarter
Jan 1
Full

Hourly Weather History & Observations

Time (CST) Temp. Windchill Dew Point Humidity Pressure Visibility Wind Dir Wind Speed Gust Speed Precip Events Conditions
12:54 AM 16.0 °F -0.4 °F 10.9 °F 81% 29.96 in 10.0 mi West 18.4 mph - N/A   Clear
1:54 AM 15.1 °F -2.0 °F 10.0 °F 80% 29.96 in 10.0 mi West 19.6 mph - N/A   Clear
2:54 AM 16.0 °F -1.7 °F 10.0 °F 77% 29.97 in 10.0 mi West 21.9 mph 31.1 mph N/A   Clear
3:54 AM 15.1 °F -2.0 °F 9.0 °F 77% 29.98 in 10.0 mi West 19.6 mph - N/A   Clear
4:54 AM 15.1 °F -2.5 °F 9.0 °F 77% 29.99 in 10.0 mi West 20.7 mph - N/A   Clear
5:54 AM 14.0 °F -3.4 °F 8.1 °F 77% 30.01 in 10.0 mi West 19.6 mph 27.6 mph N/A   Clear
6:54 AM 14.0 °F -2.5 °F 8.1 °F 77% 30.01 in 10.0 mi West 17.3 mph - N/A   Clear
7:54 AM 14.0 °F -2.5 °F 9.0 °F 80% 30.02 in 10.0 mi West 17.3 mph - N/A   Clear
8:54 AM 17.1 °F 1.5 °F 10.9 °F 77% 30.04 in 10.0 mi West 17.3 mph 27.6 mph N/A   Clear
9:54 AM 19.9 °F 3.9 °F 12.9 °F 74% 30.05 in 10.0 mi WNW 20.7 mph 31.1 mph N/A   Clear
10:54 AM 21.9 °F 6.2 °F 14.0 °F 72% 30.06 in 10.0 mi WNW 21.9 mph - N/A   Clear
11:54 AM 21.9 °F 5.5 °F 14.0 °F 72% 30.06 in 10.0 mi WNW 24.2 mph 28.8 mph N/A   Scattered Clouds
12:54 PM 24.1 °F 8.7 °F 16.0 °F 71% 30.06 in 10.0 mi NW 23.0 mph 31.1 mph N/A   Scattered Clouds
1:01 PM 23.0 °F 7.6 °F 15.1 °F 72% 29.99 in 10.0 mi NW 21.9 mph 27.6 mph N/A   Mostly Cloudy
1:54 PM 19.9 °F 5.2 °F 14.0 °F 78% 30.08 in 9.0 mi WNW 17.3 mph 32.2 mph 0.00 in Snow Light Snow
2:31 PM 19.0 °F 1.6 °F 14.0 °F 81% 30.02 in 2.5 mi NW 24.2 mph 31.1 mph 0.00 in Snow Light Snow
2:39 PM 19.0 °F 1.3 °F 14.0 °F 81% 30.02 in 4.0 mi WNW 25.3 mph 29.9 mph 0.00 in Snow Light Snow
2:54 PM 19.0 °F 1.6 °F 14.0 °F 81% 30.10 in 7.0 mi NW 24.2 mph 28.8 mph 0.00 in Snow Light Snow
3:54 PM 18.0 °F 2.2 °F 12.9 °F 81% 30.13 in 3.0 mi NW 18.4 mph - 0.00 in Snow Light Snow
4:02 PM 18.0 °F 1.7 °F 14.0 °F 84% 30.06 in 2.5 mi WNW 19.6 mph - 0.00 in Snow Light Snow
4:15 PM 18.0 °F 2.6 °F 14.0 °F 84% 30.06 in 1.8 mi WNW 17.3 mph - 0.00 in Snow Light Snow
4:25 PM 18.0 °F 1.7 °F 14.0 °F 84% 30.06 in 2.5 mi WNW 19.6 mph - 0.00 in Snow Light Snow
4:35 PM 17.1 °F 0.1 °F 14.0 °F 88% 30.07 in 1.2 mi WNW 20.7 mph - 0.00 in Snow Light Snow
4:54 PM 17.1 °F 0.1 °F 12.9 °F 84% 30.15 in 3.0 mi WNW 20.7 mph - 0.00 in Snow Light Snow
5:54 PM 16.0 °F -1.7 °F 12.0 °F 84% 30.17 in 2.5 mi NNW 21.9 mph 28.8 mph 0.00 in Snow Light Snow
6:17 PM 15.1 °F -3.7 °F 10.9 °F 84% 30.10 in 3.0 mi NW 24.2 mph 31.1 mph 0.00 in Snow Light Snow
6:54 PM 15.1 °F -1.6 °F 12.0 °F 88% 30.19 in 3.0 mi NW 18.4 mph - 0.00 in Snow Light Snow
7:02 PM 15.1 °F -2.0 °F 12.0 °F 88% 30.12 in 6.0 mi NW 19.6 mph - 0.00 in Snow Light Snow
7:17 PM 15.1 °F -1.6 °F 10.9 °F 84% 30.11 in 4.0 mi NW 18.4 mph - 0.00 in Snow Light Snow
7:25 PM 15.1 °F -0.6 °F 12.0 °F 88% 30.12 in 4.0 mi NW 16.1 mph - 0.00 in Snow Light Snow
7:34 PM 15.1 °F -1.6 °F 12.0 °F 88% 30.12 in 6.0 mi NW 18.4 mph - 0.00 in Snow Light Snow
7:45 PM 15.1 °F -0.6 °F 12.0 °F 88% 30.12 in 2.5 mi NW 16.1 mph - 0.00 in Snow Light Snow
7:52 PM 15.8 °F 0.3 °F 12.2 °F 86% 30.12 in 4.0 mi NW 16.1 mph - 0.00 in Snow Light Snow
7:54 PM 15.1 °F -0.6 °F 12.0 °F 88% 30.20 in 5.0 mi NW 16.1 mph - 0.00 in Snow Light Snow
8:02 PM 15.1 °F -1.6 °F 12.0 °F 88% 30.12 in 6.0 mi NW 18.4 mph - 0.00 in Snow Light Snow
8:54 PM 16.0 °F 1.1 °F 12.9 °F 88% 30.21 in 9.0 mi NW 15.0 mph - 0.00 in   Overcast
9:20 PM 16.0 °F 1.1 °F 12.9 °F 88% 30.13 in 4.0 mi NW 15.0 mph - 0.00 in Snow Light Snow
9:49 PM 15.8 °F 1.4 °F 14.0 °F 93% 30.13 in 2.5 mi NW 13.8 mph - 0.00 in Snow Light Snow
9:54 PM 16.0 °F 1.7 °F 14.0 °F 92% 30.21 in 3.0 mi NW 13.8 mph - 0.00 in Snow Light Snow
10:54 PM 16.0 °F -0.9 °F 12.0 °F 84% 30.22 in 8.0 mi NW 19.6 mph - 0.00 in Snow Light Snow
11:17 PM 16.0 °F -0.4 °F 10.9 °F 81% 30.15 in 10.0 mi NW 18.4 mph - 0.00 in   Overcast
11:54 PM 16.0 °F 0.6 °F 10.0 °F 77% 30.23 in 10.0 mi NW 16.1 mph 25.3 mph 0.00 in   Overcast